GONETS-M 20 (47227 NORAD) Tracking and Keplerian Element Data

This shows tracking and keplerian element data for the satellite.

Feedback or suggestion? Click here.




ElementValue
Catalog47227
NameGONETS-M 20
Epoch Orbit1665
Epoch Day106.09916412
Epoch Year2021
RAAN35.9985
Inclination82.508
Eccentricity0.0020875
Argument of Perigee345.4546
Mean Anonmoly14.5931
Mean Motion12.42884211
Decay Rate2.4E-07
L11 47227U 20091A 21106.09916412 .00000024 00000-0 10000-3 0 9996
L22 47227 82.5080 35.9985 0020875 345.4546 14.5931 12.42884211 16653

Live tracking and technical data element details for GONETS-M 20 (NORAD 47227). GONETS-M 20 can be tracked NOW for your location showing map with azimuth and elevation plus other details from your city location.

Track the satellite on the map from your city or location and see movement details for azimuth, elevation, latitude, longitude, range, height, and movement on the map or in text.







IsCatalogInMostPopularTable: catalog: 47227, numindb: 48
Update: records affected: 1



GetName: 47227 GONETS-M 20

Hit Count: updated at: Fri, 16 Apr 2021 10:41:09 GMT